Visibility
15.0 5.6 13.4 15.0 15.0 15.0 15.0 15.0 15.0 15.0 15.0 15.0 15.0 15.0 15.0 13.4 15.0 15.0 15.0 15.0 15.0 14.4 15.0 4.1 6.9 8.6 8.5 15.0 12.2 6.7 5.9 13.7 11.7 15.0 15.0 15.0 15.0 15.0 15.0 11.3 15.0 15.0 15.0
14.5 4.0 15.0 15.0 15.0 15.0 8.8 15.0 15.0 15.0 15.0 15.0 15.0 15.0 15.0 15.0 15.0 15.0 5.9 15.0 15.0 15.0 15.0 15.0 15.0 15.0 15.0 13.9 14.8 7.3 4.7 6.8 6.2 15.0 15.0 15.0 15.0 15.0 15.0 15.0 15.0 14.5 15.0
15.0 15.0 15.0 15.0 15.0 15.0 15.0 15.0 15.0 15.0 15.0 15.0 15.0 15.0 15.0 15.0 15.0 15.0 15.0 15.0 15.0 15.0 15.0 15.0 15.0 15.0 0.6 15.0 15.0 15.0 12.3 15.0 15.0 15.0 15.0 15.0 15.0 15.0 15.0 15.0 15.0 15.0 15.0
15.0 15.0 15.0 14.2 15.0 13.6 3.8 15.0 12.8 12.1 15.0 15.0 15.0 15.0 15.0 15.0 15.0 15.0 15.0 15.0 15.0 15.0 15.0 15.0 15.0 15.0 15.0 15.0 9.2 15.0 15.0 15.0 15.0 15.0 15.0 15.0 15.0 15.0 15.0 15.0 15.0 15.0 15.0
13.7 13.4 14.6 12.6 6.6 11.8 15.0 15.0 5.6 15.0 15.0 15.0 15.0 15.0 15.0 15.0 15.0 15.0 15.0 15.0 15.0 15.0 15.0 15.0 15.0 15.0 15.0 15.0 15.0 15.0 14.7 15.0 15.0 15.0 15.0 15.0 15.0 15.0 15.0 15.0 15.0 15.0 15.0
12.0 15.0 6.8 6.7 13.0 11.8 15.0 15.0 9.7 15.0 15.0 15.0 15.0 15.0 15.0 15.0 6.5 15.0 0.3 15.0 15.0 15.0 15.0 15.0 15.0 15.0 15.0 14.8 15.0 15.0 9.1 14.9 14.9 15.0 15.0 15.0 15.0 15.0 15.0 15.0 15.0 15.0 15.0
7.6 12.7 6.7 5.7 13.9 14.1 9.9 10.3 9.1 11.0 14.7 15.0 15.0 15.0 15.0 15.0 15.0 15.0 15.0 14.9 12.6 13.7 15.0 14.8 12.1 14.1 15.0 15.0 7.8 15.0 15.0 3.1 0.1 14.4 15.0 13.3 11.8 4.0 6.5 15.0 15.0 15.0 13.0
13.8 7.8 6.7 10.9 7.1 9.7 9.5 15.0 15.0 13.7 15.0 15.0 15.0 15.0 15.0 14.6 15.0 15.0 15.0 15.0 15.0 15.0 15.0 15.0 15.0 15.0 7.3 9.8 15.0 0.3 1.9 1.5 2.1 15.0 6.9 0.3 3.2 4.7 15.0 14.0 9.4 2.0 0.3
0.6 1.3 7.4 8.0 9.7 7.8 4.3 14.8 15.0 7.2 14.0 15.0 15.0 15.0 15.0 15.0 15.0 15.0 15.0 15.0 15.0 15.0 15.0 15.0 15.0 15.0 9.9 14.9 15.0 0.2 0.2 0.1 8.3 6.2 2.5 12.0 3.8 7.5 3.1 10.3 15.0 0.9 0.1
0.1 0.1 0.3 2.9 3.8 0.5 0.1 0.1 6.9 11.3 9.4 8.5 4.4 4.9 12.3 11.7 14.7 15.0 15.0 15.0 14.9 14.4 14.2 14.9 10.2 14.7 12.8 13.8 14.2 5.7 0.2 0.6 4.1 0.8 5.8 1.4 1.9 9.8 15.0 10.9 11.1 0.9 1.7
0.0 0.1 0.1 0.1 0.2 0.2 0.1 0.1 0.9 0.2 0.2 0.2 1.0 0.5 0.6 4.8 0.9 6.0 7.2 11.4 3.4 1.7 3.0 4.8 1.7 7.0 2.8 2.7 1.8 2.7 0.3 0.9 1.4 1.0 2.0 6.5 9.2 15.0 15.0 15.0 15.0 15.0 15.0
5.6 1.1 0.1 0.1 1.7 0.9 0.1 0.1 0.3 0.3 0.5 2.6 5.6 0.6 0.3 0.5 0.4 1.0 1.7 1.5 0.5 0.5 0.3 0.3 0.3 7.3 13.8 10.0 11.6 10.7 12.0 12.0 15.0 15.0 15.0 15.0 13.5 10.8 15.0 15.0 15.0 15.0 15.0
2.3 0.8 1.0 1.7 1.1 0.4 0.5 0.6 1.4 4.2 10.0 9.7 3.5 1.9 1.1 0.7 0.9 3.8 8.7 7.3 13.7 7.5 6.9 13.1 15.0 15.0 15.0 15.0 15.0 15.0 15.0 15.0 15.0 14.0 5.0 5.4 13.9 13.6 14.9 15.0 15.0 15.0 15.0
15.0 4.3 1.5 1.4 1.2 1.2 1.2 0.8 0.3 0.1 0.6 4.8 8.6 4.7 1.4 2.1 2.1 2.3 1.1 5.0 14.6 12.7 13.1 14.6 15.0 15.0 15.0 15.0 15.0 15.0 15.0 14.9 15.0 13.8 6.5 15.0 15.0 15.0 15.0 15.0 15.0 15.0 15.0
15.0 14.2 8.4 15.0 10.7 3.6 0.8 0.8 1.2 0.3 0.4 0.6 0.6 0.6 0.6 0.5 0.1 0.6 1.3 0.7 0.6 1.4 11.5 15.0 10.8 14.9 12.9 15.0 15.0 15.0 15.0 15.0 15.0 15.0 15.0 15.0 15.0 15.0 15.0 15.0 15.0 15.0 15.0
11.6 7.7 0.4 8.1 9.4 15.0 15.0 2.6 15.0 11.0 8.9 2.9 3.5 2.9 0.4 2.4 10.3 10.2 11.3 11.9 15.0 15.0 15.0 11.9 6.7 15.0 13.2 14.5 15.0 15.0 15.0 15.0 15.0 15.0 15.0 15.0 15.0 15.0 15.0 15.0 15.0 15.0 15.0
10.3 0.8 7.1 14.8 2.9 0.2 0.6 14.3 2.9 2.6 15.0 10.8 4.6 9.1 4.9 0.9 15.0 15.0 15.0 15.0 15.0 15.0 15.0 15.0 14.7 15.0 15.0 15.0 15.0 15.0 15.0 15.0 15.0 15.0 15.0 15.0 15.0 15.0 15.0 15.0 15.0 15.0 15.0
0.9 5.7 1.3 0.5 0.6 0.9 0.8 0.5 0.5 1.5 1.1 0.5 9.8 9.8 15.0 15.0 15.0 15.0 15.0 15.0 15.0 15.0 15.0 15.0 15.0 15.0 15.0 15.0 15.0 15.0 15.0 15.0 15.0 15.0 15.0 15.0 15.0 15.0 15.0 15.0 15.0 15.0 15.0
15.0 4.5 1.8 3.8 3.6 3.9 5.9 5.4 3.4 4.7 2.0 0.2 0.3 0.8 6.8 15.0 15.0 15.0 15.0 15.0 15.0 15.0 15.0 15.0 15.0 15.0 15.0 15.0 14.3 15.0 15.0 15.0 15.0 15.0 15.0 15.0 15.0 15.0 15.0 15.0 15.0 15.0 15.0
8.6 15.0 14.7 8.2 6.1 8.9 6.4 1.4 1.9 6.2 14.5 9.6 5.8 0.7 0.7 15.0 15.0 15.0 15.0 15.0 15.0 15.0 15.0 15.0 15.0 15.0 15.0 15.0 15.0 15.0 15.0 15.0 15.0 15.0 15.0 15.0 15.0 15.0 15.0 15.0 15.0 15.0 15.0
1.8 7.4 2.6 4.9 1.3 1.8 0.9 1.0 1.9 15.0 15.0 4.1 3.6 11.5 15.0 15.0 15.0 15.0 15.0 15.0 15.0 15.0 15.0 15.0 15.0 15.0 15.0 15.0 15.0 15.0 15.0 15.0 15.0 14.5 15.0 15.0 15.0 15.0 15.0 15.0 15.0 15.0 15.0
2.7 1.5 4.0 1.5 11.8 2.5 1.5 1.5 1.5 0.9 0.7 3.3 12.2 15.0 15.0 15.0 15.0 15.0 15.0 14.4 3.4 1.2 14.8 15.0 15.0 15.0 15.0 15.0 15.0 2.1 15.0 15.0 15.0 15.0 3.2 15.0 8.7 14.8 15.0 13.1 15.0 15.0 15.0
14.8 3.0 13.8 3.9 0.2 5.1 10.4 8.8 0.2 2.5 14.9 15.0 15.0 15.0 15.0 11.3 2.4 9.9 14.0 7.4 15.0 15.0 15.0 15.0 15.0 10.9 0.2 0.5 15.0 15.0 10.2 5.1 0.2 9.7 15.0 15.0 3.3 15.0 7.3 15.0 15.0 15.0 15.0
15.0 15.0 15.0 3.5 15.0 13.4 0.3 2.5 13.7 15.0 14.0 8.4 15.0 14.5 6.5 3.8 14.1 15.0 13.0 1.5 15.0 12.8 0.4 1.2 14.3 15.0 15.0 15.0 13.8 15.0 15.0 15.0 15.0 15.0 13.9 4.1 15.0 15.0 15.0 15.0 15.0 15.0 3.0
15.0 15.0 15.0 13.1 14.9 3.2 13.1 15.0 15.0 14.7 14.3 4.5 7.1 5.2 4.4 10.9 13.0 2.0 12.6 15.0 11.3 1.7 8.0 14.6 15.0 15.0 9.5 14.3 15.0 15.0 15.0 15.0 15.0 15.0 15.0 10.4 10.6 8.4 0.2 2.4 0.5 15.0 15.0
15.0 15.0 15.0 15.0 15.0 15.0 11.2 6.1 15.0 15.0 15.0 15.0 15.0 15.0 15.0 15.0 1.9 4.9 9.8 15.0 6.5 11.8 15.0 11.0 15.0 15.0 0.5 14.9 15.0 15.0 15.0 15.0 15.0 15.0 15.0 1.4 0.8 1.9 15.0 15.0 15.0 15.0 15.0